METEOR 2-17 DEB, 35371

Orbit data source: Space-Track

METEOR 2-17 DEB, 35371 is space debris in LEO originally from a launch on Sat, 30 Jan 1988 UTC launched from the Plesetsk Missile And Space Complex (PKMTR). Debris objects in space refer to the collection of defunct objects orbiting the Earth. Examples of debris include non-operational satellites, rocket bodies, and fragments generated from explosions, collisions, or faulty payload assembly.

Loading next visibility...
Identifier
35371, 1988-005AF
Orbit
LEO
Country
Flag of CISCIS
Related business
Manufacturer
Unknown
Mission
Spacecraft
Bus & Motor
Unknown
Mass
Unknown
Launch date (UTC)
1988-01-30 (38 years ago)
Launch vehicle
Unknown
Launch site
Plesetsk Missile And Space Complex (PKMTR)
Object type
Payload
Rocket body
Debris
Shape & HBR
Unknown shape, 0.1 m
Radar Cross Section
Small (<0.1 m²)

Expand to show TLE details & history
Last TLE update: 1 day ago

TLE from 1 day ago
0 METEOR 2-17 DEB
1 35371U 88005AF  25351.39553671  .00002135  00000-0  13229-2 0  9995
2 35371  82.5092  20.3726 0017138  27.6033 332.6044 14.04701045634986
Epoch: 2025-12-17T09:29Z
TLE epoch observation values (Epoch: 2025-12-17T09:29:34.371Z)
Latitude
-0.00011°
Longitude
151.71337°
Altitude
869.453 km
Speed
7.423 km/s
True Right ascension
01h 21m 29s
True Declination
0° 00' 00"
Sunlit
Object was in daylight at epoch
Visualization orbit readout
Latitude
Unknown
Longitude
Unknown
Altitude
Unknown
Speed
Unknown
Apparent Right ascension
Unknown
Apparent Declination
Unknown
Sunlit
N/A
Visualization observer readout
Local Sidereal Time
19:27:18
Azimuth
Unknown
Elevation
Unknown
Doppler factor
Unknown
Orbital elements
Apogee altitude
887.117 km
Perigee altitude
862.257 km
Semi-major axis
7,252.824 km
Eccentricity
0.00171
Inclination
82.5092°
RAAN
20.3726°
Arg. of periapsis
27.6033°
True anomaly
332.51386°
Mean anomaly
332.6044°
Eccentric anomaly
332.55915°
Mean motion
3.51384 °/min
Orbital period
102.45 mins
BSTAR
0.0013229
Loading maneuver chart data...
Computing Atmospheric mass density...
Loading historical data...
Loading historical data...
Loading historical data...
Loading historical data...
Loading historical data...
Loading historical data...
Loading historical data...

Documentation

Showing up to 5 results
|